Flag for U.S.A. Weather past 2 weeks in San Francisco, California, U.S.A.

Now
66 °F

Partly sunny.


Feels Like: 66 °F
Forecast: 61 / 69 °F
Wind: 5 mph from South

Location: San Francisco International Airport

Current Time: Jul 22, 2014 at 9:17:23 AM

Latest Report: Jul 22, 2014 at 7:56 AM


Visibility: 10 mi

Pressure: 30.08 "Hg

Humidity: 73%

Dew point: 57 °F

Location of San FranciscoLocation

Historic Weather in San Francisco — Graph

°F

San Francisco temperature yesterday

Maximum temperature yesterday: 76 °F (at 2:56 PM)
Minimum temperature yesterday: 66 °F (at 1:56 AM)
Average temperature yesterday: 69 °F

Past Weeks' High & Low Weather Summary

 TemperatureHumidityPressure
High79 °F (Jul 15, 3:56 PM)97% (Jul 13, 6:56 AM)30.10 "Hg (Jul 13, 6:56 AM)
Low53 °F (Jul 13, 4:56 AM)53% (Jul 8, 2:56 PM)29.83 "Hg (Jul 7, 6:56 PM)
Average66 °F75%29.97 "Hg
* Reported Jul 7 7:56 AM — Jul 22 7:56 AM, San Francisco, Weather by CustomWeather, © 2014

Note: Actual official high and low records may vary slightly from our data, if they occured in-between our weather recording intervals... More about our weather records

Advertising

San Francisco weather history for previous 24 hours

 ConditionsComfort  
Time TempWeatherWind HumidityBarometerVisibility
7:56 AM
Jul 22
66 °FPartly sunny.5 mph73%30.08 "Hg10 mi
6:56 AM66 °FOvercast.6 mph75%30.06 "Hg10 mi
5:56 AM65 °FOvercast.7 mph81%30.04 "Hg10 mi
4:56 AM65 °FPassing clouds.7 mph78%30.06 "Hg10 mi
3:56 AM65 °FPassing clouds.No wind76%30.03 "Hg10 mi
2:56 AM65 °FPassing clouds.7 mph78%30.04 "Hg10 mi
1:56 AM65 °FPassing clouds.7 mph78%30.04 "Hg10 mi
12:56 AM65 °FPassing clouds.5 mph76%30.04 "Hg10 mi
11:56 PM
Jul 21
66 °FPassing clouds.6 mph73%30.04 "Hg10 mi
10:56 PM66 °FPassing clouds.7 mph73%30.04 "Hg10 mi
9:56 PM67 °FPassing clouds.9 mph68%30.04 "Hg10 mi
8:56 PM67 °FPassing clouds.13 mph68%30.03 "Hg10 mi
7:56 PM69 °FPassing clouds.15 mph63%30.03 "Hg10 mi
6:56 PM72 °FPassing clouds.14 mph59%30.02 "Hg10 mi
5:56 PM72 °FPassing clouds.13 mph61%30.02 "Hg10 mi
4:56 PM74 °FPassing clouds.16 mph57%30.02 "Hg10 mi
3:56 PM75 °FPassing clouds.15 mph58%30.03 "Hg10 mi
2:56 PM76 °FPassing clouds.18 mph56%30.05 "Hg10 mi
1:56 PM75 °FScattered clouds.14 mph58%30.05 "Hg10 mi
12:56 PM74 °FScattered clouds.18 mph60%30.06 "Hg10 mi
11:56 AM72 °FScattered clouds.13 mph66%30.06 "Hg10 mi
10:56 AM70 °FPartly sunny.13 mph68%30.06 "Hg10 mi
9:56 AM68 °FLow clouds.8 mph76%30.05 "Hg10 mi
Weather by CustomWeather, © 2014

See weather overviewHow to use our weather pages